{"data":{"norad_id":68771,"intl_designator":"2026-086F","name":"STARLINK-36759","alt_names":[],"object_type":"PAYLOAD","status":"ACTIVE","operator":null,"country":"US","launch_date":"2026-04-19","launch_site_code":"AFWTR","launch_vehicle":null,"mission":null,"orbit_class":"UNKNOWN","rcs_meters":null,"size_class":null,"mass_kg":null,"dimensions":null,"purposes":["comms"],"wikipedia_slug":null,"has_3d_model":false,"image_url":null,"decayed_at":null,"tle_current":{"epoch":"2026-09-20T01:17:18.851424Z","epoch_age_seconds":78663,"freshness":"FRESH","line1":"1 68771U 26086F   26263.05369041  .00011033  00000+0  34351-3 0  9994","line2":"2 68771  97.2859 298.4431 0001109 100.9507 259.1861 15.33451347 23615","mean_motion":15.33451347,"eccentricity":0.0001109,"inclination_deg":97.2859,"raan_deg":298.4431,"arg_perigee_deg":100.9507,"mean_anomaly_deg":259.1861,"bstar":0.00034351,"rev_number":2361,"period_min":93.905815976306,"perigee_km":464.76532829966,"apogee_km":466.28325237386,"semimajor_km":6843.6612903368,"source":"CELESTRAK","updated_at":"2026-09-20T09:00:43.998158Z"}}}